TimeAEST,TemperatureF,Dew PointF,Humidity,Sea Level PressureIn,VisibilityMPH,Wind Direction,Wind SpeedMPH,Gust SpeedMPH,PrecipitationIn,Events,Conditions,WindDirDegrees,DateUTC
12:00 AM,78,77,96,29.96,,ESE,23.0,,,,,120,2013-03-21 14:00:00
12:00 AM,78.8,77.0,94,29.95,-9999.0,ESE,23.0,-,N/A,,Unknown,120,2013-03-21 14:00:00
12:30 AM,77.0,77.0,100,29.95,-9999.0,ESE,20.7,-,N/A,,Unknown,120,2013-03-21 14:30:00
1:00 AM,77.0,77.0,100,29.95,-9999.0,ESE,24.2,-,N/A,,Unknown,120,2013-03-21 15:00:00
1:30 AM,78.8,77.0,94,29.95,-9999.0,SE,23.0,-,N/A,,Unknown,130,2013-03-21 15:30:00
2:00 AM,77.0,77.0,100,29.95,-9999.0,SE,20.7,-,N/A,,Unknown,130,2013-03-21 16:00:00
2:30 AM,78.8,77.0,94,29.95,-9999.0,ESE,23.0,-,N/A,,Unknown,120,2013-03-21 16:30:00
3:00 AM,78,77,97,29.93,,ESE,23.0,,,,,120,2013-03-21 17:00:00
3:00 AM,77.0,77.0,100,29.92,-9999.0,ESE,23.0,-,N/A,,Unknown,120,2013-03-21 17:00:00
3:30 AM,78.8,77.0,94,29.92,-9999.0,SE,21.9,-,N/A,,Unknown,130,2013-03-21 17:30:00
4:00 AM,78.8,77.0,94,29.92,-9999.0,SE,21.9,-,N/A,,Unknown,130,2013-03-21 18:00:00
4:30 AM,77.0,77.0,100,29.92,-9999.0,ESE,25.3,-,N/A,,Unknown,120,2013-03-21 18:30:00
5:00 AM,77.0,77.0,100,29.95,-9999.0,SE,20.7,-,N/A,,Unknown,130,2013-03-21 19:00:00
5:30 AM,77.0,77.0,100,29.95,-9999.0,ESE,24.2,-,N/A,,Unknown,120,2013-03-21 19:30:00
6:00 AM,78,77,96,29.95,,SE,23.0,,,,,130,2013-03-21 20:00:00
6:00 AM,77.0,77.0,100,29.95,-9999.0,SE,23.0,-,N/A,,Unknown,130,2013-03-21 20:00:00
6:30 AM,78.8,77.0,94,29.95,-9999.0,SE,20.7,-,N/A,,Unknown,130,2013-03-21 20:30:00
7:00 AM,78.8,77.0,94,29.98,-9999.0,ESE,24.2,-,N/A,,Unknown,120,2013-03-21 21:00:00
7:30 AM,77.0,77.0,100,29.98,-9999.0,ESE,21.9,-,N/A,,Unknown,120,2013-03-21 21:30:00
8:00 AM,77.0,77.0,100,29.98,-9999.0,ESE,24.2,-,N/A,,Unknown,120,2013-03-21 22:00:00
8:30 AM,78.8,78.8,100,29.98,-9999.0,SE,19.6,-,N/A,,Unknown,130,2013-03-21 22:30:00
9:00 AM,79,78,97,30.00,,ESE,20.7,,,,,120,2013-03-21 23:00:00
9:00 AM,78.8,78.8,100,30.01,-9999.0,ESE,20.7,-,N/A,,Unknown,120,2013-03-21 23:00:00
9:30 AM,80.6,78.8,94,30.01,-9999.0,ESE,21.9,-,N/A,,Unknown,120,2013-03-21 23:30:00
10:00 AM,82.4,78.8,89,30.01,-9999.0,SE,19.6,-,N/A,,Unknown,130,2013-03-22 00:00:00
10:30 AM,80.6,77.0,89,30.01,-9999.0,ESE,25.3,-,N/A,,Unknown,120,2013-03-22 00:30:00
11:00 AM,80.6,77.0,89,30.01,-9999.0,ESE,25.3,-,N/A,,Unknown,120,2013-03-22 01:00:00
11:30 AM,80.6,77.0,89,29.98,-9999.0,ESE,26.5,-,N/A,,Unknown,120,2013-03-22 01:30:00
12:00 PM,80,77,88,29.98,,ESE,23.0,,,,,120,2013-03-22 02:00:00
12:00 PM,80.6,77.0,89,29.98,-9999.0,ESE,23.0,-,N/A,,Unknown,120,2013-03-22 02:00:00
12:30 PM,80.6,77.0,89,29.98,-9999.0,SE,23.0,-,N/A,,Unknown,130,2013-03-22 02:30:00
1:00 PM,80.6,77.0,89,29.95,-9999.0,SE,21.9,-,N/A,,Unknown,130,2013-03-22 03:00:00
1:30 PM,80.6,78.8,94,29.95,-9999.0,SE,24.2,-,N/A,,Unknown,140,2013-03-22 03:30:00
2:00 PM,78.8,78.8,100,29.92,-9999.0,SE,26.5,-,N/A,,Unknown,130,2013-03-22 04:00:00
2:30 PM,78.8,78.8,100,29.92,-9999.0,SE,20.7,-,N/A,,Unknown,130,2013-03-22 04:30:00
3:00 PM,79,78,98,29.92,,ESE,21.9,,,,,120,2013-03-22 05:00:00
3:00 PM,78.8,78.8,100,29.92,-9999.0,ESE,21.9,-,N/A,,Unknown,120,2013-03-22 05:00:00
3:30 PM,-9999,-9999,N/A,29.92,-9999.0,ESE,21.9,-,N/A,,Unknown,120,2013-03-22 05:30:00
4:00 PM,-9999,-9999,N/A,29.92,-9999.0,ESE,21.9,-,N/A,,Unknown,110,2013-03-22 06:00:00
4:20 PM,77.0,77.0,100,29.92,-9999.0,East,26.5,-,N/A,,Unknown,80,2013-03-22 06:20:00
4:27 PM,77.0,77.0,100,29.92,-9999.0,ENE,21.9,33.4,N/A,,Unknown,70,2013-03-22 06:27:00
4:30 PM,77.0,77.0,100,29.92,-9999.0,ENE,19.6,-,N/A,,Unknown,70,2013-03-22 06:30:00
5:00 PM,77.0,77.0,100,29.92,-9999.0,East,17.3,-,N/A,,Unknown,80,2013-03-22 07:00:00
5:30 PM,78.8,78.8,100,29.95,-9999.0,East,13.8,-,N/A,,Unknown,90,2013-03-22 07:30:00
6:00 PM,79,78,96,29.95,,East,15.0,,,,,100,2013-03-22 08:00:00
6:00 PM,78.8,78.8,100,29.95,-9999.0,East,15.0,-,N/A,,Unknown,90,2013-03-22 08:00:00
6:30 PM,78.8,78.8,100,29.95,-9999.0,ESE,15.0,-,N/A,,Unknown,110,2013-03-22 08:30:00
7:00 PM,78.8,78.8,100,29.98,-9999.0,ESE,19.6,-,N/A,,Unknown,110,2013-03-22 09:00:00
7:30 PM,78.8,78.8,100,29.98,-9999.0,ESE,18.4,-,N/A,,Unknown,120,2013-03-22 09:30:00
8:00 PM,78.8,78.8,100,29.98,-9999.0,ESE,18.4,-,N/A,,Unknown,110,2013-03-22 10:00:00
8:30 PM,78.8,78.8,100,29.98,-9999.0,ESE,20.7,-,N/A,,Unknown,110,2013-03-22 10:30:00
9:00 PM,79,78,98,30.01,,ESE,18.4,,,,,110,2013-03-22 11:00:00
9:00 PM,78.8,78.8,100,30.01,-9999.0,ESE,18.4,-,N/A,,Unknown,110,2013-03-22 11:00:00
9:30 PM,78.8,78.8,100,30.01,-9999.0,ESE,18.4,-,N/A,,Unknown,110,2013-03-22 11:30:00
10:00 PM,78.8,78.8,100,30.01,-9999.0,ESE,18.4,-,N/A,,Unknown,110,2013-03-22 12:00:00
10:30 PM,78.8,78.8,100,30.01,-9999.0,ESE,18.4,-,N/A,,Unknown,110,2013-03-22 12:30:00
11:00 PM,78.8,78.8,100,30.01,-9999.0,ESE,17.3,-,N/A,,Unknown,110,2013-03-22 13:00:00
11:30 PM,78.8,78.8,100,30.01,-9999.0,ESE,19.6,-,N/A,,Unknown,120,2013-03-22 13:30:00